SL-18 DEB

Satellite information

Favourite Embed

Satellite Type and Status

DEBRISIN ORBIT

Key statistics

Satellite SL-18 DEB at a glance.

Uptime

11952

Days in orbit

Revolutions

≈ 14.4

Per day

Orbit

LEO

Low Earth Orbit

Inclination

75.8

Latest

Satellite identification and parameters

Extended collection of information and parameters for SL-18 DEB.

Object identification

Identified? True

Debris? True

Object name: SL-18 DEB

International designator: 1993-014C

Object number (NORAD): 22567

Object ID (CCSDS): 22567

Country: COMMONWEALTH OF INDEPENDENT STATES (CIS)

Current information (Y/N): Y

RCS size: SMALL

Orbital parameters

Period: 99.712 minutes

Inclination: 75.7527 deg

SMA: 7122.916 km

Apoapsis: 848.757 km

Periapsis: 640.806 km

RAAN: 46.2257 deg

Eccentricy: 0.01459731

Argument of periapsis: 232.6347 deg

Mean anomaly: 293.2868 deg

Mean motion: 14.44162286 rev/day

Mean motion (dot): 0.00003114 rev/day2

B* drag term: 0.00080146616 1/REarth

Two-line elements (TLE)

Creation date: Dec. 14, 2025, 3:07 a.m.

Reference frame: TEME

Reference center: EARTH

Epoch: Dec. 13, 2025, 2:39 p.m. UTC

TLE line 0: 0 SL-18 DEB

TLE line 1: 1 22567U 93014C 25347.61097027 .00003114 00000-0 80147-3 0 9994

TLE line 2: 2 22567 75.7527 46.2257 0145973 232.6347 293.2868 14.44162286707199

Live tracking on map

Real-time ground track for satellite SL-18 DEB.

In-orbit conjunctions

A list of the most updated potential collisions computed for object SL-18 DEB.

Target Orbit TCA Probability of collision Miss distance Type
CZ-6A DEB LEO 2025-07-15 05:50:50 0.0002302175 337.0 (m) DEBRIS
COSMOS 2251 DEB LEO 2024-09-30 19:47:50 0.0002170743 152.0 (m) DEBRIS

Associated space launch

EKA 1 and 2 were vehicle evaluation payloads on the maiden flights of the Start-1 and Start launch vehicles.

SL-18 DEB was lifted into orbit during the mission ‘Start-1 | EKA-1’, on board a Start-1 space rocket.

The launch took place on March 25, 1993, 1:15 p.m. from 158.

For more information about the launch, click the button.

Launch to space Start-1 | EKA-1
Start-1 | EKA-1

Agency: N/A

Status: Launch Successful

Launch date: March 25, 1993, 1:15 p.m. UTC

Rocket: Start-1

Launch pad: 158

Location: Plesetsk Cosmodrome, Russian Federation

...

Latest news about this satellite

There are no fresh news available about this satellite. Check back as we update our databases every day.


Newsletter sign-up

Weekly statistics, charts and insights to help you stay on top of the space industry.